This demonstration page uses our WeatherBlox Daily Observations layout. Learn more.

Left ArrowRight Arrow

Hourly Observations for June 5, 2021

Temp ( °F °C ) Dew Point ( °F °C ) Humidity (%) Winds ( mph kmh ) Pressure ( in mb ) Visibility ( mi km ) Precip ( " mm )
12:53 am 00:53 Mostly Cloudy 72 22.2 56 13.3 57 57 SE 12 19 29.85 1011 10 16 0.00 0.00
1:53 am 01:53 Clear 69 20.6 57 13.9 66 66 SE 12 19 29.84 1011 10 16 0.00 0.00
2:53 am 02:53 Clear 68 20 58 14.4 70 70 SE 12 19 29.83 1010 10 16 0.00 0.00
3:53 am 03:53 Clear 67 19.4 58 14.4 73 73 SE 8 13 29.82 1010 10 16 0.00 0.00
4:53 am 04:53 Clear 65 18.3 59 15 81 81 SE 9 15 29.81 1010 10 16 0.00 0.00
5:53 am 05:53 Clear 65 18.3 59 15 81 81 ESE 9 15 29.82 1010 10 16 0.00 0.00
6:53 am 06:53 Sunny 64 17.8 59 15 84 84 ESE 9 15 29.81 1010 10 16 0.00 0.00
7:53 am 07:53 Sunny 65 18.3 59 15 81 81 SE 10 17 29.83 1010 10 16 0.00 0.00
8:53 am 08:53 Sunny 70 21.1 59 15 68 68 SE 9 15 29.82 1010 10 16 0.00 0.00
9:53 am 09:53 Sunny 74 23.3 59 15 60 60 SE 13 20 29.80 1009 10 16 0.00 0.00
10:53 am 10:53 Sunny 80 26.7 54 12.2 41 41 SSE 13 20 29.78 1009 10 16 0.00 0.00
11:53 am 11:53 Sunny 84 28.9 51 10.6 32 32 S 10 17 29.76 1008 10 16 0.00 0.00
12:53 pm 12:53 Sunny 87 30.6 51 10.6 29 29 SSE 12 19 29.74 1007 10 16 0.00 0.00
1:53 pm 13:53 Sunny 89 31.7 52 11.1 28 28 S 8 13 29.72 1006 10 16 0.00 0.00
2:53 pm 14:53 Sunny 92 33.3 49 9.4 23 23 S 14 22 29.68 1005 10 16 0.00 0.00
3:53 pm 15:53 Sunny 91 32.8 48 8.9 23 23 VRB 3 6 29.65 1004 10 16 0.00 0.00
4:53 pm 16:53 Sunny 94 34.4 47 8.3 20 20 S 9 15 29.62 1003 10 16 0.00 0.00
5:53 pm 17:53 Sunny 95 35 47 8.3 19 19 SE 16 26 29.58 1002 10 16 0.00 0.00
6:53 pm 18:53 Sunny 95 35 47 8.3 19 19 S 13 20 29.56 1001 10 16 0.00 0.00
7:53 pm 19:53 Sunny 93 33.9 49 9.4 22 22 SE 18 30 29.57 1001 10 16 0.00 0.00
8:53 pm 20:53 Sunny 87 30.6 54 12.2 32 32 SE 20 31 29.58 1002 10 16 0.00 0.00
9:53 pm 21:53 Clear 85 29.4 54 12.2 35 35 SE 21 33 29.59 1002 10 16 0.00 0.00
10:53 pm 22:53 Clear 83 28.3 54 12.2 37 37 SE 18 30 29.60 1002 10 16 0.00 0.00
11:53 pm 23:53 Clear 80 26.7 56 13.3 44 44 SE 20 31 29.62 1003 10 16 0.00 0.00

Powered by AerisWeather